Location: Unspecified
(0.0000°N, 0.0000°E)
Time: 21:32:28
(UTC+01:00)

Cosmos 1892 Rocket - Visible Passes

Search period start: 13 December 2017 00:00
Search period end: 23 December 2017 00:00
Orbit: 607 x 633 km, 82.5° (Epoch: 12 December)

Date Brightness Start Highest point End Pass type
(mag) Time Alt. Az. Time Alt. Az. Time Alt. Az.
13 Dec 6.2 20:48:44 10° SW 20:51:48 18° W 20:54:52 10° NW visible
14 Dec 4.1 19:27:36 10° SSE 19:31:46 39° E 19:35:56 10° NNE visible
15 Dec 3.6 19:44:52 10° S 19:49:20 87° W 19:53:48 10° N visible
16 Dec 5.1 20:02:47 10° SSW 20:06:54 36° W 20:11:01 10° NNW visible
17 Dec 6.4 20:21:38 10° SW 20:24:28 16° W 20:27:17 10° NW visible
19 Dec 3.8 19:17:32 10° S 19:22:00 79° W 19:26:28 10° N visible
20 Dec 5.5 19:35:33 10° SSW 19:39:34 33° W 19:43:35 10° NNW visible
21 Dec 6.6 06:08:33 10° NE 06:10:42 14° E 06:12:52 10° ESE visible
21 Dec 6.5 19:54:37 10° WSW 19:57:08 15° W 19:59:39 10° NW visible
22 Dec 5.6 06:24:26 10° NNE 06:28:16 31° E 06:32:05 10° SSE visible
